Location: Fours
(44.3167°N, 6.7000°E)
Time: 12:50:27
(UTC+00:00)

Cosmos 2181 Rocket - Pass Details

Date: 30 November 2020
Orbit: 951 x 1015 km, 82.9° (Epoch: 25 January)

Event Time Altitude Azimuth Distance (km) Brightness Sun altitude
Rises 17:10:58 0° 188° (S) 3,734 7.4 -13.1°
Reaches altitude 10° 17:13:30 10° 189° (S) 2,784 6.7 -13.6°
Maximum altitude 17:19:55 83° 278° (W) 1,017 4.1 -14.7°
Drops below altitude 10° 17:26:19 10° 7° (N) 2,768 6.2 -15.8°
Sets 17:28:50 0° 8° (N) 3,711 6.8 -16.2°
